Theta_e
349 347 347 345 345 349 348 348 349 350 349 349 347 348 348 349 352 352 353 354 355 354 354 356 357 359 362 360 362 361 361 357 360 360 360 358 357 356 354 353 351 348
350 349 353 347 348 352 349 349 350 349 349 349 349 349 349 350 350 351 351 352 354 354 353 355 356 358 358 358 357 357 355 356 354 360 356 357 356 356 355 353 351 349
350 351 350 347 346 348 348 349 349 349 349 348 349 349 349 350 348 349 349 350 351 353 352 353 355 357 358 357 356 356 357 354 355 355 355 353 354 353 353 353 353 352
350 351 351 350 348 348 349 348 348 349 348 348 347 349 350 349 348 347 347 355 350 351 351 352 354 356 357 357 357 356 355 354 356 356 354 355 356 357 356 355 356 355
351 351 352 351 350 351 350 348 348 348 348 348 347 348 350 348 347 347 345 349 350 350 350 351 352 353 356 355 355 355 356 355 356 356 355 353 354 357 358 357 355 354
352 352 352 351 350 349 349 347 347 348 348 347 346 347 347 348 347 346 346 344 350 350 349 350 351 352 353 354 354 353 354 356 356 356 356 355 355 356 358 357 354 352
352 352 352 352 351 350 349 348 347 348 347 348 347 345 345 345 347 346 345 344 345 349 349 349 349 350 352 353 352 352 352 353 354 353 353 354 356 355 356 356 354 353
352 353 353 352 351 350 349 348 348 347 345 346 345 345 345 343 343 346 346 345 343 343 346 348 349 349 350 352 352 352 352 354 354 352 352 352 353 354 355 356 356 354
352 352 352 352 352 349 347 347 347 346 347 344 344 345 348 347 344 343 345 345 344 344 344 345 346 348 349 349 351 352 352 353 354 353 352 352 353 354 355 355 355 355
349 352 353 352 350 348 348 348 348 349 350 345 345 346 347 348 347 347 343 344 345 345 345 346 346 346 348 349 349 350 352 352 352 353 353 352 352 354 356 356 356 356
348 350 351 351 350 349 348 350 349 350 351 350 348 346 346 345 348 349 348 346 344 345 346 347 347 347 347 348 349 349 350 351 352 352 352 352 352 353 361 357 354 350
349 349 349 349 349 348 348 348 348 348 347 349 352 350 350 347 346 346 348 346 347 348 348 347 348 350 350 349 349 349 349 351 352 352 352 352 353 353 353 349 349 349
350 349 349 349 350 349 349 349 348 347 347 345 351 351 349 347 348 347 351 348 347 349 348 347 347 348 347 348 349 350 347 349 352 352 352 352 352 352 349 349 349 349
350 350 351 349 349 348 349 349 351 351 351 349 349 348 348 349 349 350 350 349 348 348 350 350 350 348 347 347 347 348 347 348 348 351 351 351 352 350 351 350 349 348
350 351 350 350 352 348 348 349 351 351 352 351 352 351 352 351 353 352 349 347 349 351 352 351 349 349 349 348 347 347 350 348 344 348 349 350 350 351 350 350 350 349
350 352 350 350 350 349 348 349 350 350 352 351 352 351 351 352 351 353 352 349 348 348 350 350 348 349 354 353 352 350 350 350 348 350 351 350 349 349 350 349 350 350
348 351 350 349 348 349 349 350 351 352 351 350 349 349 351 352 356 353 352 350 349 347 348 349 349 349 353 342 343 352 354 350 351 350 351 351 350 349 348 349 350 351
348 349 349 348 347 348 350 349 347 345 346 349 350 350 350 352 351 351 351 353 350 347 347 347 348 350 339 340 344 344 355 354 350 350 351 350 351 350 349 350 349 351
345 346 347 346 347 349 350 348 345 344 343 344 345 348 347 346 347 350 348 349 352 352 353 349 340 333 329 333 334 337 341 357 352 352 352 351 351 351 350 350 350 350
342 344 344 344 345 346 346 346 346 344 345 346 346 346 346 347 348 345 347 347 348 347 346 336 330 330 327 329 329 330 333 341 351 352 351 351 351 351 350 349 350 349
340 340 339 340 341 342 343 343 344 345 345 345 345 344 345 344 344 344 347 350 351 348 342 331 323 323 323 323 324 325 331 340 344 351 351 349 351 351 350 349 350 352
338 338 338 339 339 341 341 342 343 343 342 341 339 337 337 339 339 341 342 345 348 345 339 327 322 319 319 319 320 321 330 339 343 346 349 350 350 350 349 350 351 349
338 338 338 337 339 339 340 341 340 339 338 337 332 332 331 331 331 332 336 339 339 334 327 323 320 319 316 316 318 321 331 337 343 347 349 350 347 347 346 348 349 348
338 338 338 338 339 339 340 339 337 335 333 333 330 329 328 328 328 328 330 333 333 330 328 323 321 319 314 312 314 318 332 334 337 346 348 343 343 345 346 345 348 354
336 336 336 336 337 337 339 337 335 333 333 331 329 327 327 327 327 324 324 325 327 328 331 322 321 319 313 311 312 314 325 327 327 330 335 338 343 343 344 335 334 339
335 335 335 335 335 336 337 337 337 334 332 330 328 326 324 323 323 321 320 321 322 323 324 323 320 319 317 310 310 312 317 327 327 327 327 328 334 341 331 331 331 329
Wind_Speed
5 4 5 5 5 5 6 5 5 6 6 6 6 6 6 6 5 5 5 5 5 6 5 5 4 4 3 3 2 1 1 2 2 2 3 3 3 4 5 4 4 3
5 5 4 4 4 4 5 5 6 5 6 5 6 6 5 4 6 5 5 6 5 6 5 5 4 4 4 3 3 2 3 3 4 2 2 2 4 3 4 4 5 4
5 5 6 6 6 5 5 5 5 5 5 5 5 5 6 5 5 6 6 6 6 7 6 5 5 4 4 4 3 3 3 3 5 4 3 3 3 3 4 5 4 4
7 6 6 6 7 6 6 5 4 4 4 4 5 6 6 6 5 6 6 8 7 7 7 6 6 5 5 5 4 4 4 4 5 4 4 3 3 3 4 4 4 3
9 7 6 6 6 6 5 6 7 6 6 6 5 5 6 5 5 5 5 6 7 8 7 6 6 6 5 5 5 5 4 5 5 4 4 5 5 4 5 4 4 4
8 8 7 7 7 7 7 7 7 8 8 7 8 7 7 8 7 7 6 6 6 8 8 7 6 6 6 5 5 5 5 5 5 4 5 5 6 5 4 4 4 4
9 8 9 8 8 8 8 8 7 7 8 9 7 8 8 8 8 8 7 6 6 6 7 7 7 7 6 5 5 5 6 6 5 5 5 5 5 6 5 5 5 4
10 9 8 7 8 9 9 8 8 6 4 4 7 9 9 9 9 8 7 8 8 7 6 7 7 7 7 6 6 6 7 6 6 6 6 6 5 6 6 6 5 5
7 9 10 9 8 6 6 6 5 5 4 4 3 2 1 1 2 3 6 9 9 8 8 7 6 7 7 7 7 8 8 8 8 7 7 7 7 7 7 6 6 6
7 7 9 10 9 8 8 6 5 5 4 4 3 2 2 2 1 1 2 4 6 9 10 9 7 7 7 7 8 9 9 9 8 8 8 8 8 8 7 6 7 6
7 8 9 10 10 8 7 6 5 5 4 5 4 4 3 3 3 2 0 3 3 2 3 5 7 8 8 8 7 7 9 9 9 8 9 8 8 7 8 4 1 2
6 7 9 10 9 8 8 7 6 5 4 3 5 5 4 5 5 4 4 3 3 3 2 2 1 1 2 3 4 6 7 9 9 9 9 9 8 8 3 5 7 7
5 5 4 4 6 7 6 5 5 5 5 5 4 5 6 5 5 6 6 5 4 4 5 5 3 2 2 1 0 2 7 8 9 9 9 9 9 5 7 6 6 5
3 2 3 2 3 3 3 4 3 3 3 3 3 3 3 4 5 6 5 6 7 6 5 3 4 4 4 4 6 5 4 7 10 9 9 7 4 6 6 6 7 7
4 3 2 1 1 2 2 2 2 2 2 2 2 2 2 2 2 1 2 4 5 6 5 5 6 7 7 8 8 5 4 2 5 12 6 6 6 6 6 7 7 7
3 1 2 2 2 1 1 0 0 0 1 1 1 3 3 2 1 1 1 3 3 3 3 5 6 6 7 7 7 5 6 6 9 12 7 6 6 6 6 6 6 6
3 1 3 3 3 3 2 3 2 1 0 1 1 1 1 1 1 2 2 1 2 3 4 4 4 4 7 8 11 13 8 8 9 8 7 7 7 7 7 7 6 7
1 3 4 4 4 4 3 3 2 2 2 1 0 0 0 0 1 2 2 1 3 4 4 5 2 7 7 7 10 12 12 9 10 11 10 9 7 7 7 7 7 5
3 2 3 2 2 3 3 1 1 2 2 2 1 0 0 0 1 2 2 1 1 0 1 4 6 11 11 11 9 10 13 11 8 9 8 7 7 7 7 6 6 5
1 3 4 4 4 5 5 4 2 1 1 1 1 1 1 1 1 2 2 3 2 0 5 5 5 10 10 10 10 11 12 9 7 6 6 7 7 7 6 6 6 7
4 4 5 4 4 6 6 6 5 4 3 3 3 2 2 1 1 1 0 1 1 3 4 5 5 12 10 9 7 8 10 9 6 6 5 5 6 6 5 5 5 5
5 6 6 5 3 6 7 6 5 4 4 4 5 5 5 5 5 5 5 4 2 2 6 6 7 13 10 9 10 9 12 4 4 5 6 4 5 3 0 3 3 4
6 6 7 4 4 6 7 6 6 6 5 4 6 7 7 8 7 6 5 7 9 7 7 6 6 11 11 11 10 12 8 5 5 4 5 3 4 6 7 3 2 4
7 8 8 6 6 6 6 7 7 6 6 5 6 7 8 7 6 8 8 7 8 8 7 6 6 10 12 12 11 10 8 5 6 6 3 2 2 4 2 2 4 12
6 7 8 8 7 7 7 7 6 6 5 5 6 6 7 6 6 7 7 8 7 7 12 9 6 8 12 13 14 14 8 6 5 6 7 5 1 5 4 5 6 10
5 6 6 7 8 8 7 6 5 6 6 6 6 5 6 6 6 7 8 7 6 6 6 6 6 6 9 12 13 14 14 6 4 6 6 7 7 6 7 6 6 6
Wind_Direction
184 180 188 186 192 184 173 172 181 178 188 193 193 201 204 215 218 213 214 216 218 222 223 227 236 236 223 220 221 220 221 222 260 251 241 247 255 247 261 278 292 274
194 185 188 183 191 201 189 182 177 180 186 191 198 197 207 207 225 218 217 218 220 223 225 225 229 227 224 218 219 228 268 274 276 262 264 245 247 263 266 271 274 283
192 184 185 183 190 199 201 201 189 191 188 200 204 207 210 201 210 217 220 216 219 223 220 221 222 220 215 217 218 224 239 255 262 273 278 270 272 279 275 275 273 271
192 188 185 188 185 190 193 195 207 209 205 202 214 219 220 226 211 205 212 218 216 223 222 217 219 213 208 212 209 223 231 237 244 251 264 275 265 260 273 262 253 280
190 192 187 183 184 183 184 192 204 207 212 216 214 223 231 232 234 228 205 216 214 218 219 221 218 217 212 215 208 220 228 236 244 239 243 253 262 255 255 251 267 279
195 191 191 189 186 186 189 195 201 204 209 213 217 216 221 220 221 228 224 209 214 214 213 216 215 220 218 218 215 217 224 231 237 227 236 244 258 255 254 255 261 266
195 194 197 195 197 198 204 209 206 202 204 209 212 218 209 212 214 219 224 218 208 213 214 209 210 219 217 218 215 224 231 229 234 226 231 244 247 263 260 258 253 253
190 191 194 197 201 205 208 212 225 223 214 221 217 220 214 209 206 210 214 217 214 212 210 208 210 213 215 208 212 221 230 228 233 233 235 244 243 251 256 251 248 249
192 190 193 194 191 178 178 174 176 170 161 164 180 172 136 258 251 237 222 207 210 214 208 208 206 212 213 207 212 215 222 225 226 225 227 233 234 238 240 239 240 246
190 191 191 189 185 183 183 184 182 191 179 186 192 191 203 195 172 152 183 237 233 211 207 214 214 209 208 212 216 217 219 221 223 225 226 227 230 235 235 228 230 237
182 177 184 186 189 185 174 172 181 184 181 179 180 202 212 201 204 203 181 144 190 250 271 251 230 218 212 215 222 225 224 222 223 225 228 228 230 232 230 216 165 207
184 184 186 186 185 184 183 178 178 183 193 192 178 191 198 202 199 201 193 196 179 185 171 162 139 345 319 294 268 248 231 228 227 225 225 225 228 225 187 166 204 225
177 191 192 186 182 188 189 187 191 189 191 202 192 185 192 196 208 200 193 195 224 205 193 191 184 190 188 163 21 304 284 260 234 224 224 225 229 192 189 203 211 220
186 160 139 150 161 166 180 195 203 204 205 217 222 226 227 218 206 204 193 186 200 212 218 190 183 176 176 196 212 202 227 277 275 236 221 224 197 192 202 207 210 214
36 30 69 116 137 166 177 178 183 201 217 222 210 228 246 273 314 286 188 198 203 198 189 190 197 203 204 204 228 226 153 116 281 283 243 196 195 198 204 215 222 222
26 55 74 78 86 113 137 107 110 198 271 246 243 244 246 227 258 328 242 205 204 215 205 202 205 210 220 207 206 213 205 186 208 226 214 207 194 195 206 209 216 223
189 151 85 71 59 51 55 59 59 58 196 215 202 212 226 238 205 215 208 206 232 220 210 221 228 230 233 221 224 225 212 209 226 239 230 199 201 199 204 207 213 219
335 112 116 108 93 78 52 43 55 64 55 71 157 261 334 267 263 261 269 213 203 207 219 219 226 351 299 247 239 236 223 210 214 217 215 213 204 205 208 205 208 204
351 52 102 109 109 106 100 73 25 55 69 69 70 62 85 7 292 1 7 321 350 256 350 39 66 20 13 0 340 307 276 253 229 223 213 209 205 206 203 204 190 187
187 109 83 65 56 59 55 37 18 22 36 57 62 89 102 59 33 29 333 315 276 105 74 64 45 21 17 5 351 335 322 306 251 239 224 214 212 205 203 203 191 170
107 95 93 77 83 87 74 61 41 30 21 14 31 52 62 68 32 23 305 311 301 66 88 68 38 20 20 7 349 342 332 320 288 279 252 235 230 218 208 201 198 192
76 81 77 53 53 78 77 71 66 45 31 34 50 41 35 34 34 28 19 356 330 65 84 57 26 11 5 5 357 347 340 307 298 285 273 260 243 247 39 42 49 68
79 81 75 59 48 68 74 75 77 65 54 49 64 55 52 50 50 35 18 39 55 62 68 61 32 10 4 12 13 5 354 323 299 279 264 280 13 18 18 354 58 84
59 68 69 59 54 63 74 82 78 72 65 54 63 63 60 54 50 51 42 42 55 55 53 54 41 17 4 1 8 15 16 348 325 303 260 92 131 74 77 337 57 112
57 67 72 68 59 54 69 87 82 80 77 65 65 66 66 59 60 64 60 51 49 56 56 55 34 18 13 7 7 3 19 40 6 14 12 343 236 133 116 74 59 61
63 75 75 77 74 69 75 81 89 81 68 70 67 71 76 67 66 65 68 57 46 49 53 55 45 28 22 12 12 16 8 30 36 48 20 3 333 149 108 101 66 62